User: anonymous   Login
Location: Unspecified
(0.0000°N, 0.0000°E)
Time: 22:28:30
(UTC+00:00)
Language:

GONETS M 06 - Orbit

View from above orbital plane
View from above orbital plane
View from above satellite
View from above satellite

Ground track
Ground track

The orbit is defined by the following mean orbital elements,

1 39250U          26145.62760190 +.00000000 +00000-0 +41114-3 0 00005
2 39250  82.4873 358.3441 0018372 297.4834  62.4377 12.43030151    08
Epoch (UTC): 25 May 2026 15:03:44
Eccentricity: 0.0018372
inclination: 82.4873°
perigee height: 1479 km
apogee height: 1508 km
right ascension of ascending node: 358.3441°
argument of perigee: 297.4834°
revolutions per day: 12.43030151
mean anomaly at epoch: 62.4377°

The dashed part of the orbit path shows where the satellite is in the earth's shadow,  

DLR